This is the latest recevied weather packets stored in our database for station/object KE8KMM. If no packets are shown the sender has not sent any weather packets the latest 10 day(s).
| Time | Temp. | Humidity | Pressure | Rain* | Wind** | Luminosity | Snow |
|---|---|---|---|---|---|---|---|
| 1777852853 | 13.33° C | 51% | 1012.1 hPa | 0 mm | - | 13 W/m² | - |
| 1777852551 | 13.89° C | 47% | 1012 hPa | 0 mm | - | 15 W/m² | - |
| 1777852247 | 13.89° C | 49% | 1012.1 hPa | 0 mm | - | 17 W/m² | - |
| 1777851945 | 14.44° C | 47% | 1012.1 hPa | 0 mm | - | 24 W/m² | - |
| 1777851643 | 14.44° C | 47% | 1012 hPa | 0 mm | - | 32 W/m² | - |
| 1777851339 | 14.44° C | 47% | 1012.1 hPa | 0 mm | - | 38 W/m² | - |
| 1777851035 | 14.44° C | 48% | 1012.1 hPa | 0 mm | - | 41 W/m² | - |
| 1777850732 | 14.44° C | 46% | 1012.2 hPa | 0 mm | - | 46 W/m² | - |
| 1777850430 | 14.44° C | 46% | 1012.3 hPa | 0 mm | - | 46 W/m² | - |
| 1777850128 | 14.44° C | 46% | 1012.3 hPa | 0 mm | - | 49 W/m² | - |
| 1777849824 | 14.44° C | 45% | 1012.3 hPa | 0 mm | - | 61 W/m² | - |
| 1777849521 | 15° C | 46% | 1012.4 hPa | 0 mm | - | 65 W/m² | - |
| 1777849218 | 15° C | 45% | 1012.3 hPa | 0 mm | - | 71 W/m² | - |
| 1777848915 | 15° C | 46% | 1012.5 hPa | 0 mm | - | 80 W/m² | - |
| 1777848610 | 15° C | 46% | 1012.4 hPa | 0 mm | - | 89 W/m² | - |
| 1777848308 | 15° C | 45% | 1012.5 hPa | 0 mm | - | 93 W/m² | - |
| 1777848005 | 15° C | 46% | 1012.2 hPa | 0 mm | - | 99 W/m² | - |
| 1777847703 | 15° C | 46% | 1012.6 hPa | 0 mm | - | 113 W/m² | - |
| 1777847398 | 15° C | 45% | 1012.8 hPa | 0 mm | - | 119 W/m² | - |
| 1777847097 | 15° C | 45% | 1013 hPa | 0 mm | - | 131 W/m² | - |
| 1777846795 | 15° C | 43% | 1012.4 hPa | 0 mm | - | 148 W/m² | - |
| 1777846493 | 15° C | 44% | 1012.7 hPa | 0 mm | - | 141 W/m² | - |
| 1777846190 | 15.56° C | 45% | 1012.9 hPa | 0 mm | - | 173 W/m² | - |
| 1777845886 | 15.56° C | 44% | 1012.6 hPa | 0 mm | - | 186 W/m² | - |
| 1777845583 | 15.56° C | 45% | 1012.6 hPa | 0 mm | - | 220 W/m² | - |
* Rain latest hour (hover to see other rain measurements)
** Current wind speed in m/s (hover to see current wind gust speed)